Location: Santa Cristina
(46.5667°N, 11.7167°E)
Time: 04:33:55
(UTC+00:00)

Cosmos 1844 - Pass Details

Date: 21 April 2021
Orbit: 823 x 867 km, 70.9° (Epoch: 10 May)

Event Time Altitude Azimuth Distance (km) Brightness Sun altitude
Exits shadow 00:09:37 57° 315° (NW) 1,010 4.1 -30.1°
Drops below altitude 10° 00:14:58 10° 21° (NNE) 2,492 7.1 -29.9°
Sets 00:17:28 0° 25° (NNE) 3,425 8.1 -29.7°
